contact:dominique.lefevre@mio.osupytheas.fr, maurice.libes@osupytheas.fr, didier.mallarino@osupytheas.fr
Project:EMSO http://www.emso-fr.org/EMSO-France
Depth: 2436.0 m
Title:EMSO Ligure Ouest : Data MII capteur MICROCAT
DateTime_Computer,Latitude,Longitude,Temperature,Conductivity,Pressure,DateTime_Instrument
DateTime_Computer,Latitude,Longitude,degC,S m-1,dbar,DateTime_Instrument
2019-09-06T00:02:12Z,42.805,6.029,13.2957,4.59954,2469.97,2019-9-06T02:02:34Z
2019-09-06T00:05:15Z,42.805,6.029,13.2960,4.59954,2469.96,2019-9-06T02:05:38Z
2019-09-06T00:08:18Z,42.805,6.029,13.2957,4.59954,2469.937,2019-9-06T02:08:41Z
2019-09-06T00:11:22Z,42.805,6.029,13.2958,4.59958,2469.914,2019-9-06T02:11:44Z
2019-09-06T00:14:25Z,42.805,6.029,13.2958,4.59954,2469.96,2019-9-06T02:14:47Z
2019-09-06T00:17:28Z,42.805,6.029,13.2958,4.59956,2469.933,2019-9-06T02:17:50Z
2019-09-06T00:20:31Z,42.805,6.029,13.2958,4.59956,2469.937,2019-9-06T02:20:53Z
2019-09-06T00:23:34Z,42.805,6.029,13.2959,4.59954,2469.96,2019-9-06T02:23:57Z
2019-09-06T00:26:37Z,42.805,6.029,13.2961,4.59954,2469.933,2019-9-06T02:27:00Z
2019-09-06T00:29:41Z,42.805,6.029,13.2957,4.59954,2469.96,2019-9-06T02:30:03Z
2019-09-06T00:32:44Z,42.805,6.029,13.2961,4.59956,2469.984,2019-9-06T02:33:06Z
2019-09-06T00:35:47Z,42.805,6.029,13.2958,4.59954,2469.947,2019-9-06T02:36:09Z
2019-09-06T00:38:50Z,42.805,6.029,13.2961,4.59957,2469.947,2019-9-06T02:39:13Z
2019-09-06T00:41:53Z,42.805,6.029,13.2958,4.59954,2469.947,2019-9-06T02:42:16Z
2019-09-06T00:44:57Z,42.805,6.029,13.2957,4.59954,2469.937,2019-9-06T02:45:19Z
2019-09-06T00:48:00Z,42.805,6.029,13.2957,4.59955,2469.923,2019-9-06T02:48:22Z
2019-09-06T00:51:03Z,42.805,6.029,13.2957,4.59955,2469.947,2019-9-06T02:51:25Z
2019-09-06T00:54:06Z,42.805,6.029,13.2958,4.59954,2469.923,2019-9-06T02:54:29Z
2019-09-06T00:57:10Z,42.805,6.029,13.2961,4.59956,2469.923,2019-9-06T02:57:32Z
2019-09-06T01:00:13Z,42.805,6.029,13.2957,4.59956,2469.937,2019-9-06T03:00:35Z
2019-09-06T01:03:16Z,42.805,6.029,13.2956,4.59956,2469.923,2019-9-06T03:03:38Z
2019-09-06T01:06:19Z,42.805,6.029,13.2958,4.59954,2469.937,2019-9-06T03:06:42Z
2019-09-06T01:09:22Z,42.805,6.029,13.2964,4.59954,2469.9,2019-9-06T03:09:45Z
2019-09-06T01:12:26Z,42.805,6.029,13.2957,4.59954,2469.947,2019-9-06T03:12:48Z
2019-09-06T01:15:29Z,42.805,6.029,13.2955,4.59955,2469.947,2019-9-06T03:15:51Z
2019-09-06T01:18:32Z,42.805,6.029,13.2955,4.59954,2469.923,2019-9-06T03:18:54Z
2019-09-06T01:21:35Z,42.805,6.029,13.2955,4.59954,2469.937,2019-9-06T03:21:58Z
2019-09-06T01:24:39Z,42.805,6.029,13.2957,4.59954,2469.937,2019-9-06T03:25:01Z
2019-09-06T01:27:42Z,42.805,6.029,13.2957,4.59956,2469.9,2019-9-06T03:28:04Z
2019-09-06T01:30:45Z,42.805,6.029,13.2959,4.59953,2469.9,2019-9-06T03:31:07Z
2019-09-06T01:33:48Z,42.805,6.029,13.2957,4.59954,2469.923,2019-9-06T03:34:10Z
2019-09-06T01:36:51Z,42.805,6.029,13.2961,4.59954,2469.914,2019-9-06T03:37:14Z
2019-09-06T01:39:55Z,42.805,6.029,13.2956,4.59954,2469.923,2019-9-06T03:40:17Z
2019-09-06T01:42:58Z,42.805,6.029,13.2958,4.59954,2469.937,2019-9-06T03:43:20Z
2019-09-06T01:46:01Z,42.805,6.029,13.2956,4.59953,2469.923,2019-9-06T03:46:23Z
2019-09-06T01:49:04Z,42.805,6.029,13.2957,4.59954,2469.923,2019-9-06T03:49:27Z
2019-09-06T01:52:07Z,42.805,6.029,13.2957,4.59954,2469.923,2019-9-06T03:52:30Z
2019-09-06T01:55:11Z,42.805,6.029,13.2959,4.59954,2469.947,2019-9-06T03:55:33Z
2019-09-06T01:58:14Z,42.805,6.029,13.2960,4.59954,2469.914,2019-9-06T03:58:36Z
2019-09-06T02:01:17Z,42.805,6.029,13.2959,4.59952,2469.9,2019-9-06T04:01:39Z
2019-09-06T02:04:20Z,42.805,6.029,13.2954,4.59953,2469.9,2019-9-06T04:04:43Z
2019-09-06T02:07:23Z,42.805,6.029,13.2955,4.59954,2469.937,2019-9-06T04:07:46Z
2019-09-06T02:10:27Z,42.805,6.029,13.2962,4.59952,2469.937,2019-9-06T04:10:49Z
2019-09-06T02:13:30Z,42.805,6.029,13.2961,4.59953,2469.937,2019-9-06T04:13:52Z
2019-09-06T02:16:33Z,42.805,6.029,13.2959,4.59954,2469.914,2019-9-06T04:16:55Z
2019-09-06T02:19:36Z,42.805,6.029,13.2958,4.59953,2469.876,2019-9-06T04:19:58Z
2019-09-06T02:22:39Z,42.805,6.029,13.2960,4.59953,2469.914,2019-9-06T04:23:02Z
2019-09-06T02:25:43Z,42.805,6.029,13.2953,4.59953,2469.923,2019-9-06T04:26:05Z
2019-09-06T02:28:46Z,42.805,6.029,13.2957,4.59954,2469.9,2019-9-06T04:29:08Z
2019-09-06T02:31:49Z,42.805,6.029,13.2960,4.59954,2469.9,2019-9-06T04:32:12Z
2019-09-06T02:34:52Z,42.805,6.029,13.2957,4.59953,2469.9,2019-9-06T04:35:15Z
2019-09-06T02:37:56Z,42.805,6.029,13.2957,4.59955,2469.914,2019-9-06T04:38:18Z
2019-09-06T02:40:59Z,42.805,6.029,13.2958,4.59954,2469.9,2019-9-06T04:41:21Z
2019-09-06T02:44:02Z,42.805,6.029,13.2958,4.59953,2469.937,2019-9-06T04:44:24Z
2019-09-06T02:47:05Z,42.805,6.029,13.2959,4.59954,2469.89,2019-9-06T04:47:28Z
2019-09-06T02:50:08Z,42.805,6.029,13.2958,4.59953,2469.9,2019-9-06T04:50:31Z
2019-09-06T02:53:12Z,42.805,6.029,13.2957,4.59961,2469.914,2019-9-06T04:53:34Z
2019-09-06T02:56:15Z,42.805,6.029,13.2956,4.59954,2469.9,2019-9-06T04:56:37Z
2019-09-06T02:59:18Z,42.805,6.029,13.2958,4.59953,2469.9,2019-9-06T04:59:40Z
2019-09-06T03:02:21Z,42.805,6.029,13.2958,4.59954,2469.89,2019-9-06T05:02:44Z
2019-09-06T03:05:24Z,42.805,6.029,13.2961,4.59954,2469.9,2019-9-06T05:05:47Z
2019-09-06T03:08:28Z,42.805,6.029,13.2957,4.59953,2469.853,2019-9-06T05:08:50Z
2019-09-06T03:11:31Z,42.805,6.029,13.2957,4.59953,2469.876,2019-9-06T05:11:53Z
2019-09-06T03:14:34Z,42.805,6.029,13.2961,4.59955,2469.9,2019-9-06T05:14:56Z
2019-09-06T03:17:37Z,42.805,6.029,13.2960,4.59953,2469.9,2019-9-06T05:18:00Z
2019-09-06T03:20:40Z,42.805,6.029,13.2961,4.59952,2469.876,2019-9-06T05:21:03Z
2019-09-06T03:23:44Z,42.805,6.029,13.2963,4.59956,2469.876,2019-9-06T05:24:06Z
2019-09-06T03:26:47Z,42.805,6.029,13.2961,4.59956,2469.914,2019-9-06T05:27:09Z
2019-09-06T03:29:50Z,42.805,6.029,13.2958,4.59954,2469.9,2019-9-06T05:30:12Z
2019-09-06T03:32:53Z,42.805,6.029,13.2959,4.59953,2469.9,2019-9-06T05:33:16Z
2019-09-06T03:35:56Z,42.805,6.029,13.2958,4.59954,2469.914,2019-9-06T05:36:19Z
2019-09-06T03:39:00Z,42.805,6.029,13.2959,4.59954,2469.89,2019-9-06T05:39:22Z
2019-09-06T03:42:03Z,42.805,6.029,13.2963,4.59954,2469.89,2019-9-06T05:42:25Z
2019-09-06T03:45:06Z,42.805,6.029,13.2959,4.59954,2469.914,2019-9-06T05:45:29Z
2019-09-06T03:48:10Z,42.805,6.029,13.2958,4.59954,2469.853,2019-9-06T05:48:32Z
2019-09-06T03:51:13Z,42.805,6.029,13.2955,4.59953,2469.914,2019-9-06T05:51:35Z
2019-09-06T03:54:16Z,42.805,6.029,13.2958,4.59955,2469.867,2019-9-06T05:54:38Z
2019-09-06T03:57:19Z,42.805,6.029,13.2960,4.59954,2469.876,2019-9-06T05:57:42Z
2019-09-06T04:00:22Z,42.805,6.029,13.2958,4.59953,2469.876,2019-9-06T06:00:45Z
2019-09-06T04:03:26Z,42.805,6.029,13.2957,4.59953,2469.876,2019-9-06T06:03:48Z
2019-09-06T04:06:29Z,42.805,6.029,13.2957,4.59952,2469.853,2019-9-06T06:06:51Z
2019-09-06T04:09:32Z,42.805,6.029,13.2957,4.59956,2469.89,2019-9-06T06:09:55Z
2019-09-06T04:12:35Z,42.805,6.029,13.2958,4.59954,2469.9,2019-9-06T06:12:58Z
2019-09-06T04:15:39Z,42.805,6.029,13.2958,4.59953,2469.867,2019-9-06T06:16:01Z
2019-09-06T04:18:42Z,42.805,6.029,13.2959,4.59953,2469.853,2019-9-06T06:19:04Z
2019-09-06T04:21:45Z,42.805,6.029,13.2961,4.59956,2469.83,2019-9-06T06:22:07Z
2019-09-06T04:24:48Z,42.805,6.029,13.2958,4.59954,2469.867,2019-9-06T06:25:11Z
2019-09-06T04:27:51Z,42.805,6.029,13.2957,4.59953,2469.876,2019-9-06T06:28:14Z
2019-09-06T04:30:55Z,42.805,6.029,13.2954,4.59954,2469.876,2019-9-06T06:31:17Z
2019-09-06T04:33:58Z,42.805,6.029,13.2956,4.59953,2469.876,2019-9-06T06:34:20Z
2019-09-06T04:37:01Z,42.805,6.029,13.2957,4.59952,2469.89,2019-9-06T06:37:23Z
2019-09-06T04:40:04Z,42.805,6.029,13.2957,4.59953,2469.867,2019-9-06T06:40:27Z
2019-09-06T04:43:07Z,42.805,6.029,13.2961,4.59954,2469.89,2019-9-06T06:43:30Z
2019-09-06T04:46:11Z,42.805,6.029,13.2958,4.59954,2469.821,2019-9-06T06:46:33Z
2019-09-06T04:49:14Z,42.805,6.029,13.2959,4.59954,2469.853,2019-9-06T06:49:36Z
2019-09-06T04:52:17Z,42.805,6.029,13.2959,4.59954,2469.844,2019-9-06T06:52:40Z
2019-09-06T04:55:20Z,42.805,6.029,13.2959,4.59953,2469.876,2019-9-06T06:55:43Z
2019-09-06T04:58:24Z,42.805,6.029,13.2959,4.59955,2469.844,2019-9-06T06:58:46Z
2019-09-06T05:01:27Z,42.805,6.029,13.2963,4.59960,2469.853,2019-9-06T07:01:50Z
2019-09-06T05:04:30Z,42.805,6.029,13.2960,4.59956,2469.876,2019-9-06T07:04:53Z
2019-09-06T05:07:34Z,42.805,6.029,13.2961,4.59964,2469.853,2019-9-06T07:07:56Z
2019-09-06T05:10:37Z,42.805,6.029,13.2972,4.59981,2469.853,2019-9-06T07:10:59Z
2019-09-06T05:13:40Z,42.805,6.029,13.2969,4.59973,2469.83,2019-9-06T07:14:02Z
2019-09-06T05:16:43Z,42.805,6.029,13.2967,4.59968,2469.89,2019-9-06T07:17:06Z
2019-09-06T05:19:47Z,42.805,6.029,13.2965,4.59959,2469.89,2019-9-06T07:20:09Z
2019-09-06T05:22:50Z,42.805,6.029,13.2964,4.59963,2469.844,2019-9-06T07:23:12Z
2019-09-06T05:25:53Z,42.805,6.029,13.2961,4.59970,2469.853,2019-9-06T07:26:15Z
2019-09-06T05:28:56Z,42.805,6.029,13.2958,4.59954,2469.83,2019-9-06T07:29:19Z
2019-09-06T05:32:00Z,42.805,6.029,13.2969,4.59963,2469.867,2019-9-06T07:32:22Z
2019-09-06T05:35:03Z,42.805,6.029,13.2962,4.59954,2469.853,2019-9-06T07:35:25Z
2019-09-06T05:38:06Z,42.805,6.029,13.2963,4.59960,2469.844,2019-9-06T07:38:28Z
2019-09-06T05:41:09Z,42.805,6.029,13.2968,4.59967,2469.83,2019-9-06T07:41:32Z
2019-09-06T05:44:12Z,42.805,6.029,13.2967,4.59963,2469.853,2019-9-06T07:44:35Z
2019-09-06T05:47:16Z,42.805,6.029,13.2958,4.59955,2469.867,2019-9-06T07:47:38Z
2019-09-06T05:50:19Z,42.805,6.029,13.2958,4.59957,2469.844,2019-9-06T07:50:41Z
2019-09-06T05:53:22Z,42.805,6.029,13.2967,4.59968,2469.853,2019-9-06T07:53:45Z
2019-09-06T05:56:25Z,42.805,6.029,13.2963,4.59960,2469.844,2019-9-06T07:56:48Z
2019-09-06T05:59:29Z,42.805,6.029,13.2960,4.59955,2469.867,2019-9-06T07:59:51Z
2019-09-06T06:02:32Z,42.805,6.029,13.2958,4.59954,2469.853,2019-9-06T08:02:54Z
2019-09-06T06:05:35Z,42.805,6.029,13.2971,4.59978,2469.853,2019-9-06T08:05:57Z
2019-09-06T06:08:38Z,42.805,6.029,13.2964,4.59956,2469.83,2019-9-06T08:09:01Z
2019-09-06T06:11:41Z,42.805,6.029,13.2965,4.59975,2469.867,2019-9-06T08:12:04Z
2019-09-06T06:14:45Z,42.805,6.029,13.2961,4.59955,2469.876,2019-9-06T08:15:07Z
2019-09-06T06:17:48Z,42.805,6.029,13.2971,4.59964,2469.853,2019-9-06T08:18:10Z
2019-09-06T06:20:51Z,42.805,6.029,13.2961,4.59959,2469.853,2019-9-06T08:21:13Z
2019-09-06T06:23:54Z,42.805,6.029,13.2971,4.59966,2469.83,2019-9-06T08:24:17Z
2019-09-06T06:26:58Z,42.805,6.029,13.2966,4.59968,2469.867,2019-9-06T08:27:20Z
2019-09-06T06:30:01Z,42.805,6.029,13.2968,4.59966,2469.853,2019-9-06T08:30:24Z
2019-09-06T06:33:04Z,42.805,6.029,13.2961,4.59965,2469.853,2019-9-06T08:33:27Z
2019-09-06T06:36:08Z,42.805,6.029,13.2964,4.59966,2469.83,2019-9-06T08:36:30Z
2019-09-06T06:39:11Z,42.805,6.029,13.2960,4.59954,2469.853,2019-9-06T08:39:33Z
2019-09-06T06:42:14Z,42.805,6.029,13.2967,4.59961,2469.844,2019-9-06T08:42:37Z
2019-09-06T06:45:17Z,42.805,6.029,13.2963,4.59955,2469.867,2019-9-06T08:45:40Z
2019-09-06T06:48:21Z,42.805,6.029,13.2963,4.59955,2469.853,2019-9-06T08:48:43Z
2019-09-06T06:51:24Z,42.805,6.029,13.2974,4.59967,2469.816,2019-9-06T08:51:46Z
2019-09-06T06:54:27Z,42.805,6.029,13.2957,4.59954,2469.821,2019-9-06T08:54:50Z
2019-09-06T06:57:30Z,42.805,6.029,13.2965,4.59961,2469.89,2019-9-06T08:57:53Z
2019-09-06T07:00:34Z,42.805,6.029,13.2969,4.59967,2469.867,2019-9-06T09:00:56Z
2019-09-06T07:03:37Z,42.805,6.029,13.2968,4.59973,2469.844,2019-9-06T09:03:59Z
2019-09-06T07:06:40Z,42.805,6.029,13.2965,4.59975,2469.853,2019-9-06T09:07:03Z
2019-09-06T07:09:43Z,42.805,6.029,13.2968,4.59986,2469.83,2019-9-06T09:10:06Z
2019-09-06T07:12:47Z,42.805,6.029,13.2968,4.59973,2469.867,2019-9-06T09:13:09Z
2019-09-06T07:15:50Z,42.805,6.029,13.2975,4.59981,2469.853,2019-9-06T09:16:12Z
2019-09-06T07:18:53Z,42.805,6.029,13.2967,4.59976,2469.853,2019-9-06T09:19:15Z
2019-09-06T07:21:56Z,42.805,6.029,13.2970,4.59971,2469.853,2019-9-06T09:22:19Z
2019-09-06T07:24:59Z,42.805,6.029,13.2966,4.59979,2469.853,2019-9-06T09:25:22Z
2019-09-06T07:28:03Z,42.805,6.029,13.2974,4.59969,2469.853,2019-9-06T09:28:25Z
2019-09-06T07:31:06Z,42.805,6.029,13.2965,4.59966,2469.83,2019-9-06T09:31:28Z
2019-09-06T07:34:09Z,42.805,6.029,13.2970,4.59978,2469.89,2019-9-06T09:34:32Z
2019-09-06T07:37:12Z,42.805,6.029,13.2973,4.59986,2469.853,2019-9-06T09:37:35Z
2019-09-06T07:40:16Z,42.805,6.029,13.2967,4.59982,2469.867,2019-9-06T09:40:38Z
2019-09-06T07:43:19Z,42.805,6.029,13.2965,4.59987,2469.89,2019-9-06T09:43:41Z
2019-09-06T07:46:22Z,42.805,6.029,13.2970,4.59969,2469.844,2019-9-06T09:46:44Z
2019-09-06T07:49:25Z,42.805,6.029,13.2970,4.59970,2469.867,2019-9-06T09:49:48Z
2019-09-06T07:52:28Z,42.805,6.029,13.2970,4.59968,2469.83,2019-9-06T09:52:51Z
2019-09-06T07:55:32Z,42.805,6.029,13.2962,4.59979,2469.89,2019-9-06T09:55:54Z
2019-09-06T07:58:35Z,42.805,6.029,13.2964,4.59973,2469.876,2019-9-06T09:58:57Z
2019-09-06T08:01:38Z,42.805,6.029,13.2966,4.59983,2469.867,2019-9-06T10:02:00Z
2019-09-06T08:04:41Z,42.805,6.029,13.2969,4.59989,2469.89,2019-9-06T10:05:03Z
2019-09-06T08:07:44Z,42.805,6.029,13.2974,4.59978,2469.876,2019-9-06T10:08:07Z
2019-09-06T08:10:47Z,42.805,6.029,13.2976,4.59964,2469.876,2019-9-06T10:11:10Z
2019-09-06T08:13:51Z,42.805,6.029,13.2972,4.59975,2469.876,2019-9-06T10:14:13Z
2019-09-06T08:16:54Z,42.805,6.029,13.2967,4.59981,2469.89,2019-9-06T10:17:16Z
2019-09-06T08:19:57Z,42.805,6.029,13.2969,4.59982,2469.844,2019-9-06T10:20:19Z
2019-09-06T08:23:00Z,42.805,6.029,13.2970,4.59977,2469.876,2019-9-06T10:23:23Z
2019-09-06T08:26:04Z,42.805,6.029,13.2964,4.59966,2469.89,2019-9-06T10:26:26Z
2019-09-06T08:29:07Z,42.805,6.029,13.2963,4.59970,2469.876,2019-9-06T10:29:29Z
2019-09-06T08:32:10Z,42.805,6.029,13.2971,4.59968,2469.844,2019-9-06T10:32:32Z
2019-09-06T08:35:13Z,42.805,6.029,13.2968,4.59977,2469.89,2019-9-06T10:35:36Z
2019-09-06T08:38:16Z,42.805,6.029,13.2961,4.59956,2469.853,2019-9-06T10:38:39Z
2019-09-06T08:41:20Z,42.805,6.029,13.2975,4.59993,2469.853,2019-9-06T10:41:42Z
2019-09-06T08:44:23Z,42.805,6.029,13.2968,4.59991,2469.876,2019-9-06T10:44:45Z
2019-09-06T08:47:26Z,42.805,6.029,13.2968,4.59989,2469.876,2019-9-06T10:47:48Z
2019-09-06T08:50:29Z,42.805,6.029,13.2971,4.59987,2469.853,2019-9-06T10:50:52Z
2019-09-06T08:53:32Z,42.805,6.029,13.2962,4.59976,2469.876,2019-9-06T10:53:55Z
2019-09-06T08:56:36Z,42.805,6.029,13.2971,4.59976,2469.89,2019-9-06T10:56:58Z
2019-09-06T08:59:39Z,42.805,6.029,13.2972,4.59992,2469.89,2019-9-06T11:00:01Z
2019-09-06T09:02:42Z,42.805,6.029,13.2969,4.59986,2469.853,2019-9-06T11:03:04Z
2019-09-06T09:05:45Z,42.805,6.029,13.2972,4.59971,2469.876,2019-9-06T11:06:08Z
2019-09-06T09:08:48Z,42.805,6.029,13.2967,4.59966,2469.876,2019-9-06T11:09:11Z
2019-09-06T09:11:52Z,42.805,6.029,13.2978,4.59972,2469.9,2019-9-06T11:12:14Z
2019-09-06T09:14:55Z,42.805,6.029,13.2969,4.59968,2469.867,2019-9-06T11:15:17Z
2019-09-06T09:17:58Z,42.805,6.029,13.2970,4.59963,2469.876,2019-9-06T11:18:20Z
2019-09-06T09:21:01Z,42.805,6.029,13.2971,4.59983,2469.914,2019-9-06T11:21:24Z
2019-09-06T09:24:04Z,42.805,6.029,13.2976,4.59968,2469.89,2019-9-06T11:24:27Z
2019-09-06T09:27:08Z,42.805,6.029,13.2968,4.59978,2469.89,2019-9-06T11:27:30Z
2019-09-06T09:30:11Z,42.805,6.029,13.2972,4.59985,2469.914,2019-9-06T11:30:33Z
2019-09-06T09:33:14Z,42.805,6.029,13.2971,4.59981,2469.9,2019-9-06T11:33:36Z
2019-09-06T09:36:17Z,42.805,6.029,13.2959,4.59960,2469.876,2019-9-06T11:36:40Z
2019-09-06T09:39:20Z,42.805,6.029,13.2973,4.59966,2469.9,2019-9-06T11:39:43Z
2019-09-06T09:42:24Z,42.805,6.029,13.2968,4.59973,2469.876,2019-9-06T11:42:46Z
2019-09-06T09:45:27Z,42.805,6.029,13.2971,4.59980,2469.9,2019-9-06T11:45:49Z
2019-09-06T09:48:30Z,42.805,6.029,13.2968,4.59990,2469.914,2019-9-06T11:48:52Z
2019-09-06T09:51:33Z,42.805,6.029,13.2967,4.59985,2469.9,2019-9-06T11:51:56Z
2019-09-06T09:54:36Z,42.805,6.029,13.2969,4.59968,2469.937,2019-9-06T11:54:59Z
2019-09-06T09:57:40Z,42.805,6.029,13.2975,4.59982,2469.9,2019-9-06T11:58:02Z
2019-09-06T10:00:43Z,42.805,6.029,13.2970,4.59974,2469.937,2019-9-06T12:01:05Z
2019-09-06T10:03:46Z,42.805,6.029,13.2968,4.59967,2469.914,2019-9-06T12:04:08Z
2019-09-06T10:06:49Z,42.805,6.029,13.2969,4.59971,2469.96,2019-9-06T12:07:12Z
2019-09-06T10:09:52Z,42.805,6.029,13.2977,4.59971,2469.937,2019-9-06T12:10:15Z
2019-09-06T10:12:56Z,42.805,6.029,13.2964,4.59955,2469.923,2019-9-06T12:13:18Z
2019-09-06T10:15:59Z,42.805,6.029,13.2967,4.59958,2469.947,2019-9-06T12:16:21Z
2019-09-06T10:19:02Z,42.805,6.029,13.2973,4.59971,2469.937,2019-9-06T12:19:24Z
2019-09-06T10:22:05Z,42.805,6.029,13.2974,4.59994,2469.9,2019-9-06T12:22:28Z
2019-09-06T10:25:08Z,42.805,6.029,13.2971,4.59990,2469.937,2019-9-06T12:25:31Z
2019-09-06T10:28:12Z,42.805,6.029,13.2968,4.59974,2469.923,2019-9-06T12:28:34Z
2019-09-06T10:31:15Z,42.805,6.029,13.2967,4.59982,2469.96,2019-9-06T12:31:37Z
2019-09-06T10:34:18Z,42.805,6.029,13.2975,4.59991,2469.937,2019-9-06T12:34:40Z
2019-09-06T10:37:21Z,42.805,6.029,13.2976,4.60006,2469.937,2019-9-06T12:37:44Z
2019-09-06T10:40:24Z,42.805,6.029,13.2971,4.59986,2469.937,2019-9-06T12:40:47Z
2019-09-06T10:43:28Z,42.805,6.029,13.2976,4.59988,2469.947,2019-9-06T12:43:50Z
2019-09-06T10:46:31Z,42.805,6.029,13.2968,4.59993,2469.923,2019-9-06T12:46:53Z
2019-09-06T10:49:34Z,42.805,6.029,13.2972,4.59976,2469.96,2019-9-06T12:49:56Z
2019-09-06T10:52:37Z,42.805,6.029,13.2973,4.59968,2469.947,2019-9-06T12:53:00Z
2019-09-06T10:55:40Z,42.805,6.029,13.2976,4.59981,2469.937,2019-9-06T12:56:03Z
2019-09-06T10:58:44Z,42.805,6.029,13.2970,4.59989,2469.96,2019-9-06T12:59:06Z
2019-09-06T11:01:47Z,42.805,6.029,13.2972,4.59965,2469.947,2019-9-06T13:02:09Z
2019-09-06T11:04:50Z,42.805,6.029,13.2963,4.59964,2469.937,2019-9-06T13:05:12Z
2019-09-06T11:07:53Z,42.805,6.029,13.2971,4.59973,2469.984,2019-9-06T13:08:16Z
2019-09-06T11:10:56Z,42.805,6.029,13.2972,4.59970,2469.984,2019-9-06T13:11:19Z
2019-09-06T11:14:00Z,42.805,6.029,13.2967,4.59972,2469.9,2019-9-06T13:14:22Z
2019-09-06T11:17:03Z,42.805,6.029,13.2971,4.59963,2469.984,2019-9-06T13:17:25Z
2019-09-06T11:20:06Z,42.805,6.029,13.2974,4.59969,2469.947,2019-9-06T13:20:28Z
2019-09-06T11:23:09Z,42.805,6.029,13.2964,4.59968,2469.947,2019-9-06T13:23:32Z
2019-09-06T11:26:12Z,42.805,6.029,13.2967,4.59973,2469.97,2019-9-06T13:26:35Z
2019-09-06T11:29:16Z,42.805,6.029,13.2966,4.59967,2469.96,2019-9-06T13:29:38Z
2019-09-06T11:32:19Z,42.805,6.029,13.2964,4.59963,2469.933,2019-9-06T13:32:41Z
2019-09-06T11:35:22Z,42.805,6.029,13.2960,4.59957,2469.947,2019-9-06T13:35:44Z
2019-09-06T11:38:25Z,42.805,6.029,13.2977,4.59968,2469.984,2019-9-06T13:38:48Z
2019-09-06T11:41:28Z,42.805,6.029,13.2967,4.59980,2469.97,2019-9-06T13:41:51Z
2019-09-06T11:44:32Z,42.805,6.029,13.2969,4.59976,2469.947,2019-9-06T13:44:54Z
2019-09-06T11:47:35Z,42.805,6.029,13.2971,4.59977,2469.947,2019-9-06T13:47:57Z
2019-09-06T11:50:38Z,42.805,6.029,13.2967,4.59961,2469.993,2019-9-06T13:51:00Z
2019-09-06T11:53:41Z,42.805,6.029,13.2965,4.59970,2469.96,2019-9-06T13:54:04Z
2019-09-06T11:56:44Z,42.805,6.029,13.2962,4.59966,2469.97,2019-9-06T13:57:07Z
2019-09-06T11:59:48Z,42.805,6.029,13.2963,4.59979,2469.984,2019-9-06T14:00:10Z
2019-09-06T12:02:51Z,42.805,6.029,13.2970,4.59971,2469.984,2019-9-06T14:03:13Z
2019-09-06T12:05:54Z,42.805,6.029,13.2962,4.59956,2469.947,2019-9-06T14:06:16Z
2019-09-06T12:08:57Z,42.805,6.029,13.2970,4.59966,2469.947,2019-9-06T14:09:20Z
2019-09-06T12:12:00Z,42.805,6.029,13.2971,4.59965,2469.97,2019-9-06T14:12:23Z
2019-09-06T12:15:04Z,42.805,6.029,13.2967,4.59972,2469.97,2019-9-06T14:15:26Z
2019-09-06T12:18:07Z,42.805,6.029,13.2960,4.59956,2469.97,2019-9-06T14:18:29Z
2019-09-06T12:21:10Z,42.805,6.029,13.2972,4.59963,2469.993,2019-9-06T14:21:32Z
2019-09-06T12:24:13Z,42.805,6.029,13.2971,4.59961,2469.97,2019-9-06T14:24:36Z
2019-09-06T12:27:17Z,42.805,6.029,13.2968,4.59966,2469.97,2019-9-06T14:27:39Z
2019-09-06T12:30:20Z,42.805,6.029,13.2972,4.59960,2469.96,2019-9-06T14:30:42Z
2019-09-06T12:33:23Z,42.805,6.029,13.2974,4.59976,2470.007,2019-9-06T14:33:45Z
2019-09-06T12:36:26Z,42.805,6.029,13.2971,4.59966,2470.017,2019-9-06T14:36:49Z
2019-09-06T12:39:29Z,42.805,6.029,13.2973,4.59963,2469.97,2019-9-06T14:39:52Z
2019-09-06T12:42:33Z,42.805,6.029,13.2964,4.59971,2469.947,2019-9-06T14:42:55Z
2019-09-06T12:45:36Z,42.805,6.029,13.2964,4.59964,2469.97,2019-9-06T14:45:58Z
2019-09-06T12:48:39Z,42.805,6.029,13.2964,4.59962,2469.97,2019-9-06T14:49:01Z
2019-09-06T12:51:42Z,42.805,6.029,13.2965,4.59971,2469.993,2019-9-06T14:52:05Z
2019-09-06T12:54:45Z,42.805,6.029,13.2961,4.59956,2469.97,2019-9-06T14:55:08Z
2019-09-06T12:57:49Z,42.805,6.029,13.2965,4.59968,2469.97,2019-9-06T14:58:11Z
2019-09-06T13:00:52Z,42.805,6.029,13.2962,4.59957,2469.984,2019-9-06T15:01:14Z
2019-09-06T13:03:55Z,42.805,6.029,13.2969,4.59963,2469.97,2019-9-06T15:04:17Z
2019-09-06T13:06:58Z,42.805,6.029,13.2974,4.59968,2469.97,2019-9-06T15:07:21Z
2019-09-06T13:10:01Z,42.805,6.029,13.2970,4.59968,2469.96,2019-9-06T15:10:24Z
2019-09-06T13:13:05Z,42.805,6.029,13.2969,4.59972,2469.984,2019-9-06T15:13:27Z
2019-09-06T13:16:08Z,42.805,6.029,13.2971,4.59968,2469.96,2019-9-06T15:16:30Z
2019-09-06T13:19:11Z,42.805,6.029,13.2964,4.59967,2469.97,2019-9-06T15:19:33Z
2019-09-06T13:22:14Z,42.805,6.029,13.2967,4.59959,2469.96,2019-9-06T15:22:37Z
2019-09-06T13:25:17Z,42.805,6.029,13.2967,4.59964,2469.993,2019-9-06T15:25:40Z
2019-09-06T13:28:21Z,42.805,6.029,13.2967,4.59970,2469.947,2019-9-06T15:28:43Z
2019-09-06T13:31:24Z,42.805,6.029,13.2968,4.59961,2469.993,2019-9-06T15:31:46Z
2019-09-06T13:34:27Z,42.805,6.029,13.2959,4.59962,2469.947,2019-9-06T15:34:50Z
2019-09-06T13:37:30Z,42.805,6.029,13.2968,4.59965,2470.007,2019-9-06T15:37:53Z
2019-09-06T13:40:34Z,42.805,6.029,13.2964,4.59958,2469.956,2019-9-06T15:40:56Z
2019-09-06T13:43:37Z,42.805,6.029,13.2964,4.59957,2469.984,2019-9-06T15:43:59Z
2019-09-06T13:46:40Z,42.805,6.029,13.2961,4.59956,2470.007,2019-9-06T15:47:02Z
2019-09-06T13:49:43Z,42.805,6.029,13.2964,4.59963,2469.947,2019-9-06T15:50:06Z
2019-09-06T13:52:46Z,42.805,6.029,13.2968,4.59964,2469.96,2019-9-06T15:53:09Z
2019-09-06T13:55:50Z,42.805,6.029,13.2960,4.59955,2469.96,2019-9-06T15:56:12Z
2019-09-06T13:58:53Z,42.805,6.029,13.2967,4.59966,2469.993,2019-9-06T15:59:15Z
2019-09-06T14:01:56Z,42.805,6.029,13.2964,4.59968,2469.97,2019-9-06T16:02:18Z
2019-09-06T14:04:59Z,42.805,6.029,13.2962,4.59957,2469.97,2019-9-06T16:05:22Z
2019-09-06T14:08:02Z,42.805,6.029,13.2968,4.59961,2469.97,2019-9-06T16:08:25Z
2019-09-06T14:11:06Z,42.805,6.029,13.2970,4.59961,2469.937,2019-9-06T16:11:28Z
2019-09-06T14:14:09Z,42.805,6.029,13.2964,4.59964,2469.96,2019-9-06T16:14:31Z
2019-09-06T14:17:12Z,42.805,6.029,13.2971,4.59961,2469.937,2019-9-06T16:17:34Z
2019-09-06T14:20:15Z,42.805,6.029,13.2969,4.59979,2469.947,2019-9-06T16:20:38Z
2019-09-06T14:23:18Z,42.805,6.029,13.2976,4.59971,2469.96,2019-9-06T16:23:41Z
2019-09-06T14:26:22Z,42.805,6.029,13.2974,4.59967,2469.984,2019-9-06T16:26:44Z
2019-09-06T14:29:25Z,42.805,6.029,13.2966,4.59969,2469.97,2019-9-06T16:29:47Z
2019-09-06T14:32:28Z,42.805,6.029,13.2960,4.59956,2469.984,2019-9-06T16:32:51Z
2019-09-06T14:35:31Z,42.805,6.029,13.2958,4.59955,2469.96,2019-9-06T16:35:54Z
2019-09-06T14:38:35Z,42.805,6.029,13.2965,4.59957,2469.947,2019-9-06T16:38:57Z
2019-09-06T14:41:38Z,42.805,6.029,13.2964,4.59955,2469.947,2019-9-06T16:42:00Z
2019-09-06T14:44:41Z,42.805,6.029,13.2974,4.59963,2469.947,2019-9-06T16:45:03Z
2019-09-06T14:47:44Z,42.805,6.029,13.2968,4.59973,2469.984,2019-9-06T16:48:07Z
2019-09-06T14:50:47Z,42.805,6.029,13.2968,4.59969,2469.923,2019-9-06T16:51:10Z
2019-09-06T14:53:51Z,42.805,6.029,13.2974,4.59976,2469.923,2019-9-06T16:54:13Z
2019-09-06T14:56:54Z,42.805,6.029,13.2968,4.59982,2469.947,2019-9-06T16:57:16Z
2019-09-06T14:59:57Z,42.805,6.029,13.2969,4.59978,2469.96,2019-9-06T17:00:19Z
2019-09-06T15:03:00Z,42.805,6.029,13.2968,4.59974,2469.984,2019-9-06T17:03:23Z
2019-09-06T15:06:03Z,42.805,6.029,13.2969,4.59965,2469.96,2019-9-06T17:06:26Z
2019-09-06T15:09:07Z,42.805,6.029,13.2961,4.59961,2469.947,2019-9-06T17:09:29Z
2019-09-06T15:12:10Z,42.805,6.029,13.2962,4.59958,2469.96,2019-9-06T17:12:32Z
2019-09-06T15:15:13Z,42.805,6.029,13.2973,4.59974,2469.993,2019-9-06T17:15:35Z